This is the latest recevied weather packets stored in our database for station/object VK4AB-13. If no packets are shown the sender has not sent any weather packets the latest 10 day(s).
| Time | Temp. | Humidity | Pressure | Rain* | Wind** | Luminosity | Snow |
|---|---|---|---|---|---|---|---|
| 1777601335 | 24.44° C | 59% | 1022.8 hPa | 0 mm | - | 267 W/m² | - |
| 1777601035 | 24.44° C | 60% | 1022.9 hPa | 0 mm | - | 234 W/m² | - |
| 1777600735 | 24.44° C | 60% | 1023 hPa | 0 mm | - | 278 W/m² | - |
| 1777600435 | 24.44° C | 60% | 1023.2 hPa | 0 mm | - | 457 W/m² | - |
| 1777600135 | 23.89° C | 62% | 1023.2 hPa | 0 mm | - | 169 W/m² | - |
| 1777599835 | 24.44° C | 61% | 1023.3 hPa | 0 mm | - | 167 W/m² | - |
| 1777599535 | 24.44° C | 62% | 1023.4 hPa | 0 mm | - | 206 W/m² | - |
| 1777599235 | 24.44° C | 64% | 1023.5 hPa | 0 mm | - | 253 W/m² | - |
| 1777598935 | 23.89° C | 68% | 1023.6 hPa | 0 mm | - | 220 W/m² | - |
| 1777598635 | 23.89° C | 68% | 1023.8 hPa | 0 mm | - | 359 W/m² | - |
| 1777598335 | 23.89° C | 69% | 1023.9 hPa | 0 mm | - | 220 W/m² | - |
| 1777598035 | 23.89° C | 71% | 1024 hPa | 0 mm | - | 336 W/m² | - |
| 1777597735 | 23.33° C | 72% | 1024.1 hPa | 0 mm | - | 332 W/m² | - |
| 1777597435 | 23.33° C | 74% | 1024.2 hPa | 0 mm | - | 274 W/m² | - |
| 1777597135 | 23.33° C | 75% | 1024.3 hPa | 0.25 mm | - | 403 W/m² | - |
| 1777596835 | 22.78° C | 77% | 1024.3 hPa | 0.25 mm | - | 276 W/m² | - |
| 1777596535 | 22.22° C | 78% | 1024.5 hPa | 0.25 mm | - | 241 W/m² | - |
| 1777596235 | 22.22° C | 77% | 1024.6 hPa | 0.25 mm | - | 181 W/m² | - |
| 1777595935 | 22.22° C | 78% | 1024.6 hPa | 0.25 mm | - | 214 W/m² | - |
| 1777595635 | 22.22° C | 78% | 1024.8 hPa | 0.25 mm | - | 186 W/m² | - |
| 1777595335 | 22.22° C | 77% | 1024.9 hPa | 0.25 mm | - | 179 W/m² | - |
| 1777595035 | 22.22° C | 76% | 1024.9 hPa | 0.25 mm | - | 121 W/m² | - |
| 1777594735 | 22.22° C | 75% | 1024.9 hPa | 0.25 mm | - | 185 W/m² | - |
| 1777594435 | 22.78° C | 75% | 1024.9 hPa | 0.25 mm | - | 141 W/m² | - |
| 1777594135 | 22.78° C | 75% | 1024.9 hPa | 0.25 mm | - | 269 W/m² | - |
* Rain latest hour (hover to see other rain measurements)
** Current wind speed in m/s (hover to see current wind gust speed)